Imperial, CA

9:26 AM PDT on September 25, 2016 (GMT -0700)
Imperial County

Weather History for KIPL - February, 2014

Change the Weather History Date:

Monday, February 10, 2014

  Actual Average Record
Temperature  
Mean Temperature 66 °F -  
Max Temperature 82 °F 72 °F 88 °F (1951)
Min Temperature 50 °F 46 °F 34 °F (1949)
Cooling Degree Days 1    
Growing Degree Days 16 (Base 50)    
Moisture  
Dew Point 42 °F    
Average Humidity 46    
Maximum Humidity 69    
Minimum Humidity 18    
Precipitation  
Precipitation 0.00 in - - ()
Sea Level Pressure  
Sea Level Pressure 29.94 in    
Wind  
Wind Speed 4 mph (NW)    
Max Wind Speed 16 mph    
Max Gust Speed -    
Visibility 10 miles    
Events      
Averages and records for this station are not official NWS values.
T = Trace of Precipitation, MM = Missing Value Source: NWS Daily Summary

Daily Weather History Graph

Daily Weather History Graph

Search for Another Location

Airport or City:

Trip Planner

Search our weather history database for the weather conditions in past years. The results will help you decide how hot, cold, wet, or windy it might be!

Date:

Astronomy

Feb. 10, 2014 Rise Set
Actual Time 6:30 AM PST 5:23 PM PST
Civil Twilight 6:04 AM PST 5:48 PM PST
Nautical Twilight 5:35 AM PST 6:17 PM PST
Astronomical Twilight 5:06 AM PST 6:46 PM PST
Moon 2:01 PM PST (2/10) 3:21 AM PST (2/10)
Length of Visible Light 11h 44m
Length of Day
10h 53m
Waxing Gibbous, 85% of the Moon is Illuminated
Feb 10
Waxing Gibbous
Feb 14
Full
Feb 22
Last Quarter
Mar 1
New
Mar 8
First Quarter

Hourly Weather History & Observations

Time (PST) Temp. Dew Point Humidity Pressure Visibility Wind Dir Wind Speed Gust Speed Precip Events Conditions
12:53 AM 55.9 °F 44.1 °F 64% 29.96 in 10.0 mi Calm Calm - N/A   Clear
1:53 AM 55.9 °F 39.9 °F 55% 29.96 in 10.0 mi NE 5.8 mph - N/A   Clear
2:53 AM 53.1 °F 39.9 °F 61% 29.94 in 10.0 mi South 5.8 mph - N/A   Clear
3:53 AM 52.0 °F 42.1 °F 69% 29.95 in 10.0 mi Calm Calm - N/A   Clear
4:53 AM 50.0 °F 39.9 °F 68% 29.94 in 10.0 mi South 3.5 mph - N/A   Clear
5:53 AM 51.1 °F 41.0 °F 68% 29.94 in 10.0 mi SSW 4.6 mph - N/A   Clear
6:53 AM 51.1 °F 39.9 °F 66% 29.96 in 10.0 mi Calm Calm - N/A   Clear
7:53 AM 55.0 °F 42.1 °F 62% 29.97 in 10.0 mi Calm Calm - N/A   Clear
8:53 AM 66.0 °F 45.0 °F 47% 29.99 in 10.0 mi NE 5.8 mph - N/A   Clear
9:53 AM 70.0 °F 46.9 °F 44% 29.99 in 10.0 mi NE 8.1 mph - N/A   Clear
10:53 AM 73.9 °F 46.0 °F 37% 29.99 in 10.0 mi Variable 3.5 mph - N/A   Clear
11:53 AM 75.9 °F 46.0 °F 35% 29.95 in 10.0 mi NNW 5.8 mph - N/A   Clear
12:53 PM 79.0 °F 43.0 °F 28% 29.91 in 10.0 mi NNW 5.8 mph - N/A   Clear
1:53 PM 79.0 °F 46.9 °F 32% 29.88 in 10.0 mi North 16.1 mph - N/A   Clear
2:53 PM 82.0 °F 42.1 °F 24% 29.87 in 10.0 mi North 5.8 mph - N/A   Clear
3:53 PM 82.0 °F 34.0 °F 18% 29.87 in 10.0 mi North 8.1 mph - N/A   Clear
4:53 PM 77.0 °F 45.0 °F 32% 29.87 in 10.0 mi NW 5.8 mph - N/A   Clear
5:53 PM 73.0 °F 44.1 °F 35% 29.89 in 10.0 mi NW 3.5 mph - N/A   Clear
6:53 PM 68.0 °F 39.0 °F 35% 29.91 in 10.0 mi WNW 6.9 mph - N/A   Clear
7:53 PM 70.0 °F 44.1 °F 39% 29.92 in 10.0 mi NNW 11.5 mph - N/A   Clear
8:53 PM 66.9 °F 41.0 °F 39% 29.93 in 10.0 mi NW 9.2 mph - N/A   Clear
9:53 PM 61.0 °F 39.9 °F 46% 29.95 in 10.0 mi West 6.9 mph - N/A   Clear
10:53 PM 60.1 °F 39.9 °F 47% 29.95 in 10.0 mi West 6.9 mph - N/A   Clear
11:53 PM 59.0 °F 39.0 °F 48% 29.96 in 10.0 mi NW 6.9 mph - N/A   Clear